Regional Weather Roundup
Issued by NWS Green Bay, WI

Home | Current Version | Previous Version | Text Only | Print | Product List | Glossary On
Versions: 1 2 3 4 5 6 7 8 9 10 11 12 13 14 15 16 17 18 19 20 21 22 23 24 25 26 27 28 29 30 31 32 33 34 35 36 37 38 39 40 41 42 43 44 45 46 47 48 49 50
252
ASUS43 KGRB 091911
RWRGRB

NORTH-CENTRAL AND NORTHEAST WISCONSIN REGIONAL WEATHER ROUNDUP
NATIONAL WEATHER SERVICE GREEN BAY WI
100 PM CST FRI DEC 09 2016

WIZ005-009-010>012-018-019-092000-
NORTH CENTRAL WISCONSIN

CITY           SKY/WX    TMP DP  RH WIND       PRES   REMARKS
IRONWOOD       CLOUDY    15   7  70 SW12      30.41F WCI   2
MANITOWISH WTR CLOUDY    13   6  73 W9        30.37S WCI   1
ARBOR VITAE    CLOUDY    17   9  70 W9        30.37S WCI   5
EAGLE RIVER    CLOUDY    16   6  64 NW13      30.35S WCI   3
LAND O LAKES   CLOUDY    18   9  67 W6        30.35F
RHINELANDER    CLOUDY    17   8  67 W12       30.37F WCI   4
PHILLIPS       CLOUDY    15   7  69 NW7       30.40F WCI   5
ANTIGO         CLOUDY    18   8  65 W13       30.38S WCI   4
TOMAHAWK       CLOUDY    16   6  65 W8G18     30.41S WCI   5
MERRILL        CLOUDY    18   7  61 NW10      30.42F WCI   7
$$

WIZ013-073-092000-
NORTHEAST WISCONSIN

CITY           SKY/WX    TMP DP  RH WIND       PRES   REMARKS
IRON MOUNTAIN  CLOUDY    22   6  50 NW15G24   30.33F WCI   9
MARINETTE      PTSUNNY   25   9  50 N7        30.39F
OCONTO         CLOUDY    25  10  52 NW7       30.40F
$$

WIZ017-030-035>037-045-092000-
CENTRAL WISCONSIN

CITY           SKY/WX    TMP DP  RH WIND       PRES   REMARKS
MEDFORD        CLOUDY    16   7  68 W5        30.41F WCI   9
WAUSAU         CLOUDY    18   8  65 W15       30.42S WCI   4
MOSINEE        PTSUNNY   18   9  68 NW14      30.44S WCI   4
MARSHFIELD     CLOUDY    17   8  67 NW9       30.43F WCI   6
WISC RAPIDS    CLOUDY    20   9  62 NW9       30.47F WCI   9
STEVENS POINT  CLOUDY    18   7  61 NW10      30.44F WCI   6
WAUPACA        SUNNY     26  10  52 W12G17    30.45F
SHAWANO        SUNNY     27   8  45 NW9G17    30.42F
CLINTONVILLE   SUNNY     27   9  46 W12G17    30.43S
WAUTOMA        SUNNY     22  11  62 W15       30.47F WCI   9
$$

WIZ038-039-048-051-092000-
FOX VALLEY

CITY           SKY/WX    TMP DP  RH WIND       PRES   REMARKS
NWS GREEN BAY  SUNNY     27  11  51 NW13      30.41F
APPLETON       MOSUNNY   25   7  46 W15       30.41F
OSHKOSH        MOSUNNY   23  10  57 W14       30.43F
FOND DU LAC    SUNNY     24  10  55 W15       30.45F
$$

WIZ022-050-052-092000-
EAST CENTRAL WISCONSIN

CITY           SKY/WX    TMP DP  RH WIND       PRES   REMARKS
EPHRAIM        MOCLDY    26  11  53 NW9       30.36F
WASHINGTON ISL CLOUDY    26  12  56 NW9       30.35F
STURGEON BAY   CLOUDY    26  11  52 W12       30.38F
MANITOWOC      MOSUNNY   26  10  50 MISG      30.42F
SHEBOYGAN      MOSUNNY   25  10  53 W15       30.43F
$$

LMZ563-521-522-541>543-092000-
LAKESHORE

STATION/POSITION TIME  TEMP    WIND        PRES    VSBY  WAVE
                       AIR SEA DIR/SP/G                  HT/PER
                 (UTC) (F)     (DEG/KT/KT) (MB)    (MI)  (FT/S)
SHEBOYGAN LKSHOR 1900   24     290/ 13/ 15 1031.1F
KEWAUNEE LKSHORE 1848   24     310/  6/ 11 1028.9F
ALGOMA MARINA    1851          330/ 13/ 15   N/A
NORTHPORT PIER   1848   26     300/ 12/ 17 1028.1F
SISTER BAY LKSHO 1820   26     330/ 17/ 19   N/A
CHAMBERS ISLAND  1840   27     300/  9/ 16 1028.1F
MENOMINEE LKSHOR 1848   26     280/  7/ 12 1028.0F
$$




USA.gov is the U.S. government's official web portal to all federal, state and local government web resources and services.